FALCON 9 DEB, 52893

Orbit data source: Space-Track

FALCON 9 DEB, 52893 is space debris in LEO originally from a launch on Sun, 19 Jun 2022 UTC launched from the Air Force Eastern Test Range (AFETR). Debris objects in space refer to the collection of defunct objects orbiting the Earth. Examples of debris include non-operational satellites, rocket bodies, and fragments generated from explosions, collisions, or faulty payload assembly.

Loading next visibility...
Identifier
52893, 2022-064F
Orbit
LEO
Country
Flag of USUS
Related business
Manufacturer
SpaceX/Seattle
Mission
Spacecraft
Bus & Motor
Unknown
Mass
~50 kg wet, ~50 kg dry
Launch date (UTC)
2022-06-19 (3 years ago)
Launch vehicle
Unknown
Launch site
Air Force Eastern Test Range (AFETR)
Object type
Payload
Rocket body
Debris
Shape & HBR
Cyl, 3.5 m
Radar Cross Section
0.110 m², Medium (>0.1 m² and < 1m²)

Expand to show TLE details & history
Last TLE update: 12 hours ago

TLE from 12 hours ago
0 FALCON 9 DEB
1 52893U 22064F   25340.54721130  .00011917  00000-0  36778-3 0  9991
2 52893  52.9883 155.1326 0005691 264.9331  95.1019 15.33995644150130
Epoch: 2025-12-06T13:07Z
TLE epoch observation values (Epoch: 2025-12-06T13:07:59.056Z)
Latitude
-0.00006°
Longitude
-117.4369°
Altitude
465.136 km
Speed
7.635 km/s
True Right ascension
10h 20m 31s
True Declination
0° 00' 00"
Sunlit
Object was in daylight at epoch
Visualization orbit readout
Latitude
Unknown
Longitude
Unknown
Altitude
Unknown
Speed
Unknown
Apparent Right ascension
Unknown
Apparent Declination
Unknown
Sunlit
N/A
Visualization observer readout
Local Sidereal Time
22:42:40
Azimuth
Unknown
Elevation
Unknown
Doppler factor
Unknown
Orbital elements
Apogee altitude
468.084 km
Perigee altitude
460.296 km
Semi-major axis
6,842.327 km
Eccentricity
0.00057
Inclination
52.9883°
RAAN
155.1326°
Arg. of periapsis
264.9331°
True anomaly
95.16685°
Mean anomaly
95.1019°
Eccentric anomaly
95.13438°
Mean motion
3.83475 °/min
Orbital period
93.88 mins
BSTAR
0.00036778
Loading maneuver chart data...
Computing Atmospheric mass density...
Loading historical data...
Loading historical data...
Loading historical data...
Loading historical data...
Loading historical data...
Loading historical data...
Loading historical data...
Other satellites on launch #64 in the year 2022 (2022-06-19 UTC)

Documentation

Showing up to 5 results
|